User: anonymous   Login
Location: Norwich
(52.6280°N, 1.3030°E)
Time: 07:45:33
(UTC+01:00)
Language:

APEX - Orbit

View from above orbital plane
View from above orbital plane
View from above satellite
View from above satellite

Ground track
Ground track

The orbit data is extracted from the following two-line orbital elements,

1 23191U 94046A   16209.55482635  .00006821  00000-0  23337-3 0  9993
2 23191  69.9248 248.5382 0628927 335.3631  21.8595 14.32324323 69974
Epoch (UTC): 27 July 2016 13:18:56
Eccentricity: 0.0628927
inclination: 69.9248°
perigee height: 333 km
apogee height: 1234 km
right ascension of ascending node: 248.5382°
argument of perigee: 335.3631°
revolutions per day: 14.32324323
mean anomaly at epoch: 21.8595°
orbit number at epoch: 6997

The dashed part of the orbit path shows where the satellite is in the earth's shadow,  

DLR